Regional Weather Roundup
Issued by NWS

Home | Current Version | Previous Version | Graphics & Text | Print | Product List | Glossary On
Versions: 1 2 3 4 5 6 7 8 9 10 11 12 13 14 15 16 17 18 19 20 21 22 23 24 25 26 27 28 29 30 31 32 33 34 35 36 37 38 39 40 41 42 43 44 45 46 47 48 49 50
000
ASUS45 KCYS 120410
RWRWY

WYOMING REGIONAL WEATHER ROUNDUP
NATIONAL WEATHER SERVICE CHEYENNE WY
900 PM MST MON DEC 11 2017

NOTE:  "FAIR" INDICATES FEW OR NO CLOUDS BELOW 12,000 FEET
WITH NO SIGNIFICANT WEATHER AND/OR OBSTRUCTIONS TO VISIBILITY.

WYZ001-120500-
YELLOWSTONE NATIONAL PARK

CITY           SKY/WX    TMP DP  RH WIND       PRES   REMARKS
LK YELLOWSTONE   N/A     14  12  92 CALM      30.57R
W YELLOWSTONE  NOT AVBL

$$
WYZ002>013-054>058-071-098>099-120500-
NORTHERN WYOMING

CITY           SKY/WX    TMP DP  RH WIND       PRES   REMARKS
JACKSON        FAIR      16  12  84 N7        30.58R WCI   6
CODY           FAIR      34  17  50 S6        30.42S WCI  29
GREYBULL       FAIR      21  12  68 W3        30.44S
WORLAND        FAIR      20  15  81 CALM      30.43S
SHERIDAN       FAIR      23  17  78 CALM      30.38F
BUFFALO        FAIR      35  11  36 S8        30.39F WCI  29
GILLETTE       FAIR      32  17  54 W12       30.38S WCI  23
HULETT         FAIR      27  19  74 MISG      30.38S
NEWCASTLE      FAIR      27  16  63 CALM      30.41S

$$
WYZ014>020-022>026-101>103-120500-
CENTRAL WYOMING

CITY           SKY/WX    TMP DP  RH WIND       PRES   REMARKS
BIG PINEY      FAIR      31   9  39 NE6       30.51R WCI  25
PINEDALE       FAIR      23  14  68 NW7       30.53R WCI  15
DUBOIS         FAIR      27  10  50 CALM      30.47S
LANDER         FAIR      25  19  78 N5        30.45R WCI  19
RIVERTON       FAIR      26  17  68 E7        30.46S WCI  18
CASPER         FAIR      27  18  69 W13       30.44S WCI  16
DOUGLAS        FAIR      23  18  81 NW7       30.42S WCI  15

$$
WYZ021-027>030-104>119-120500-
SOUTHERN WYOMING

CITY           SKY/WX    TMP DP  RH WIND       PRES   REMARKS
EVANSTON       FAIR      33  10  38 N7        30.54S WCI  27
FORT BRIDGER   FAIR      39   5  24 W10       30.54S WCI  32
ROCK SPRINGS   FAIR      25  12  58 S7        30.50R WCI  17
DIXON          FAIR      21  13  68 E5        30.54F WCI  15
RAWLINS        FAIR      20  13  74 CALM      30.49S
SARATOGA       FAIR      21  12  68 E5        30.51R WCI  15
LARAMIE        FAIR      20  10  65 S6        30.45R WCI  12
CHEYENNE       FAIR      28  12  51 W10       30.43R WCI  19
TORRINGTON     FAIR      30  15  53 NW7       30.40F WCI  23
PINE BLUFFS    FAIR      21   5  49 MISG      30.44R

$$



USA.gov is the U.S. government's official web portal to all federal, state and local government web resources and services.